Wind_Speed
47 49 49 46 48 50 51 52 52 46 44 42 41 42 40 34 33 29 28 27 26 29 29 32 35 37 39 39 39 38 39 42 44 45 46 45 42 45 46 47 48 47 46 46
47 47 42 43 44 47 49 50 49 50 47 50 48 43 45 44 40 32 30 34 37 38 39 36 38 42 44 47 46 46 44 44 46 46 49 50 48 48 49 49 48 48 46 46
46 49 44 40 40 41 46 47 48 53 51 50 57 54 51 48 49 43 40 41 47 43 39 41 40 43 45 46 46 48 48 48 48 50 50 50 53 52 50 47 49 51 52 52
41 35 38 44 45 47 50 47 51 53 57 59 57 62 58 58 56 56 50 48 45 43 40 39 41 44 45 44 48 50 50 50 49 50 51 50 51 53 51 51 53 55 55 56
46 48 48 51 48 48 50 53 54 55 59 64 66 64 66 63 61 62 63 49 35 32 42 43 46 47 51 52 52 53 53 55 58 57 53 54 56 57 56 57 58 57 58 60
47 51 53 52 52 51 54 54 57 62 63 68 66 66 71 68 66 66 61 49 54 51 51 47 41 43 47 48 48 51 58 59 55 56 56 57 60 60 60 60 62 61 61 64
51 52 53 51 52 52 53 56 61 66 69 71 68 69 71 75 70 68 65 64 64 62 65 67 62 59 58 56 54 54 55 60 61 56 58 61 62 60 62 62 65 66 64 64
56 55 50 54 54 57 61 60 62 67 68 71 70 76 71 71 76 73 69 67 69 69 68 71 74 74 73 69 61 56 53 51 57 58 61 57 55 58 59 58 62 68 73 69
62 63 64 62 66 68 69 69 65 69 70 76 80 82 77 75 75 73 74 76 74 69 76 75 72 71 73 76 70 69 69 70 69 67 68 72 74 75 75 76 74 75 75 72
65 71 69 68 68 71 69 69 70 69 68 75 83 83 88 84 84 80 74 84 84 84 74 75 74 73 72 72 70 68 68 66 69 72 74 73 73 73 75 78 76 78 74 64
70 70 77 74 75 71 72 73 70 68 70 75 79 85 84 84 86 87 86 85 89 88 80 76 76 73 70 68 69 71 71 72 70 70 70 69 71 68 65 68 73 69 76 71
71 74 77 81 79 77 76 77 75 76 79 74 64 67 64 78 76 78 83 84 83 83 77 72 73 68 71 72 75 72 76 77 77 69 67 65 69 73 70 70 75 79 76 67
74 76 75 77 78 78 76 75 74 69 65 65 70 73 70 77 75 76 76 76 76 74 73 72 74 70 68 72 76 74 76 82 79 78 70 72 64 68 71 70 67 69 73 66
68 72 74 75 76 76 73 70 70 75 78 78 77 82 78 74 78 71 66 64 67 68 73 73 76 73 76 74 76 73 72 78 76 66 63 65 68 71 73 69 67 69 70 69
69 72 72 73 73 72 72 76 75 77 77 78 77 77 76 78 76 71 70 67 67 74 66 66 76 80 85 84 81 79 82 83 80 70 71 68 71 72 76 76 70 70 70 72
75 77 77 78 74 75 79 77 76 76 76 78 76 77 79 76 76 75 75 78 83 85 91 90 86 79 86 87 81 78 83 84 86 76 76 81 69 75 76 78 79 76 76 79
73 73 74 81 75 75 80 76 76 76 77 79 80 82 83 82 82 81 80 81 82 83 85 85 84 88 90 96 91 85 87 88 87 90 87 83 74 68 74 80 75 78 79 80
73 72 73 79 75 81 78 78 78 79 81 84 85 86 87 86 85 84 86 87 87 87 86 85 85 85 86 91 94 94 96 99 98 95 95 91 84 71 71 75 82 79 71 69
69 71 74 76 77 80 79 76 76 79 81 81 81 82 82 83 84 80 81 82 82 82 82 82 82 81 81 82 84 83 84 86 88 89 87 88 86 80 68 68 67 71 72 79
62 65 71 72 76 78 77 75 76 76 79 73 75 78 81 82 84 80 80 80 79 79 82 84 84 84 84 84 86 86 84 75 75 80 82 86 89 86 65 65 71 71 71 70
60 61 64 66 70 72 67 65 67 68 67 70 72 73 75 76 77 78 78 81 81 81 82 84 84 83 82 81 82 82 83 84 77 77 77 79 78 84 78 70 69 73 72 72
55 57 57 59 62 63 61 61 61 61 65 67 70 72 75 76 78 79 80 82 82 83 82 82 84 83 81 81 83 82 81 81 85 83 76 77 71 66 70 77 69 72 70 72
50 51 55 55 57 56 58 60 60 62 66 66 69 70 72 75 76 78 79 79 79 80 81 80 82 82 80 82 83 83 81 82 83 89 91 88 82 83 73 67 69 62 62 67
46 47 52 56 51 55 57 58 58 58 60 62 64 65 67 70 71 74 75 77 79 79 79 80 81 81 80 80 81 82 83 84 84 83 90 98 97 94 90 85 76 66 65 62
45 48 50 55 52 54 55 54 57 58 57 58 59 63 65 69 71 74 74 74 74 74 75 76 77 77 77 79 80 81 82 83 84 85 85 88 93 98 96 94 91 87 80 75
45 49 53 55 51 53 54 53 53 54 56 60 62 63 65 70 72 72 69 71 72 72 72 72 72 72 71 71 71 73 75 77 80 83 83 85 87 88 96 96 92 95 93 89
Wind_Direction
276 279 285 284 282 284 285 287 287 290 290 277 270 272 278 281 280 292 292 291 290 291 289 286 281 279 279 281 283 279 280 277 276 277 277 276 271 268 269 270 269 269 271 271
275 275 281 282 282 283 284 284 287 284 285 281 279 267 276 279 281 282 286 289 288 285 289 283 275 278 280 281 282 282 280 279 279 280 277 277 273 268 265 267 271 271 270 268
271 273 273 272 276 283 283 284 286 286 284 281 278 272 276 278 283 284 281 278 280 286 283 280 276 273 275 277 278 279 280 279 277 276 275 277 276 275 271 272 269 266 264 262
267 266 270 273 275 277 278 280 281 283 284 283 279 270 272 277 284 285 289 287 288 285 276 273 275 274 266 263 271 271 271 272 271 271 269 269 270 273 271 265 262 263 263 264
275 273 272 276 279 277 279 281 280 279 278 280 281 280 275 284 287 289 290 295 291 287 275 272 270 266 262 264 267 265 266 269 268 265 266 268 270 269 268 267 261 260 263 264
270 270 273 275 274 275 280 279 280 279 279 278 279 283 274 282 284 288 294 293 296 291 288 286 276 268 267 268 261 259 258 258 262 264 263 265 265 266 267 265 264 263 263 264
278 275 275 278 280 279 282 282 281 280 278 282 283 280 274 278 285 287 290 291 292 291 287 288 286 283 279 272 268 267 264 263 263 268 270 270 271 271 269 269 270 269 263 263
275 273 275 278 274 278 281 279 276 280 283 282 275 274 269 280 284 291 289 288 286 287 286 283 281 280 280 277 275 274 274 273 271 270 273 278 278 276 272 269 269 269 266 260
276 271 276 275 276 280 283 278 282 281 279 279 277 277 272 278 282 285 285 285 288 283 279 281 283 284 284 283 285 286 284 280 278 274 266 267 268 269 269 267 261 258 263 263
280 279 279 279 282 280 283 285 283 281 283 282 281 283 279 278 282 285 286 284 283 284 284 284 283 283 282 282 282 281 275 269 262 261 260 260 258 259 261 260 257 256 259 263
285 285 279 281 279 283 284 284 285 284 281 282 285 285 283 284 286 286 287 289 288 289 290 288 286 284 279 275 272 270 267 264 265 264 264 261 257 251 251 253 255 260 264 260
285 283 283 284 284 283 284 284 284 281 286 284 284 287 290 285 286 283 285 286 287 287 285 284 283 280 276 274 268 267 265 264 262 264 263 262 257 256 260 255 256 261 259 255
282 282 282 283 283 282 279 278 279 279 276 271 271 268 270 278 279 281 280 282 284 282 278 281 281 281 277 273 266 268 267 269 271 270 270 266 264 260 258 258 257 260 258 248
277 275 277 278 279 279 278 277 276 277 276 277 273 277 279 279 279 282 278 275 272 269 272 280 279 277 276 279 269 270 276 272 273 266 274 274 271 264 257 251 251 252 250 246
276 275 274 275 275 272 271 271 274 273 276 276 280 278 279 279 278 275 259 257 253 261 264 268 270 272 276 275 272 268 274 274 270 273 278 278 264 264 259 248 243 245 246 246
276 276 275 274 273 273 272 273 275 274 275 275 277 279 279 278 278 277 273 266 264 265 267 271 266 269 272 271 265 267 270 270 271 270 275 272 267 255 253 248 240 241 243 243
273 274 275 273 274 273 270 274 273 274 274 276 277 278 279 279 279 279 278 277 276 275 274 273 270 269 266 266 267 267 266 263 264 266 272 269 268 262 252 250 247 249 248 251
273 273 273 275 275 273 276 274 274 276 276 276 278 281 282 282 281 281 282 281 281 281 280 278 276 273 269 268 268 268 264 261 264 267 269 267 266 265 259 253 258 264 253 254
272 272 275 275 276 276 276 280 280 278 279 280 280 281 281 282 282 280 281 281 281 281 280 279 278 277 275 274 271 269 268 266 265 264 262 259 262 263 260 256 257 259 265 259
274 272 273 275 278 279 280 281 282 283 280 282 281 281 281 282 283 283 283 282 281 281 281 280 278 277 277 277 276 274 272 269 265 263 259 257 259 261 256 250 248 248 248 250
277 278 278 280 280 280 283 285 284 284 287 284 285 285 286 286 286 287 285 285 285 284 283 282 281 280 279 277 273 272 271 269 263 265 262 257 258 258 255 248 251 252 247 252
279 280 281 279 280 285 287 289 288 287 284 286 286 286 286 286 286 286 286 287 287 286 284 283 282 281 279 278 275 272 269 266 261 258 258 255 257 256 258 252 250 248 247 248
280 280 280 284 284 287 286 285 284 284 286 286 285 285 286 287 287 287 286 286 286 286 285 284 283 282 280 278 276 273 271 267 262 259 257 254 254 257 255 248 247 244 242 247
281 281 283 282 285 287 284 285 287 288 287 286 286 288 289 289 290 291 291 291 291 290 289 288 286 284 281 279 276 274 271 268 265 259 256 257 259 258 255 254 247 241 245 246
285 287 288 284 288 287 289 288 287 287 287 289 290 292 294 295 295 295 296 296 294 293 291 290 288 286 283 280 277 275 272 269 267 263 259 255 256 257 257 256 257 254 250 245
289 289 288 291 292 290 291 290 291 292 295 296 296 297 299 298 298 299 299 298 296 294 292 291 291 290 289 286 284 281 277 273 268 264 262 259 255 252 255 254 256 258 256 255
Height
5800 5798 5798 5800 5797 5795 5792 5790 5788 5791 5792 5789 5789 5785 5788 5795 5796 5798 5799 5799 5797 5795 5794 5791 5789 5786 5784 5784 5785 5783 5783 5781 5780 5780 5780 5780 5782 5781 5780 5780 5781 5780 5780 5781
5792 5787 5789 5788 5788 5786 5784 5780 5781 5779 5779 5778 5778 5779 5779 5780 5786 5790 5791 5791 5786 5784 5784 5784 5781 5779 5778 5778 5778 5777 5774 5772 5771 5770 5768 5767 5769 5769 5769 5770 5770 5769 5768 5767
5781 5779 5778 5777 5776 5777 5774 5772 5770 5768 5769 5769 5765 5764 5767 5770 5771 5776 5778 5778 5774 5774 5774 5772 5771 5768 5766 5765 5766 5764 5763 5763 5760 5758 5756 5756 5754 5755 5757 5760 5759 5758 5755 5753
5766 5770 5769 5766 5764 5764 5762 5762 5760 5758 5756 5754 5756 5749 5757 5756 5758 5758 5759 5756 5760 5761 5759 5759 5759 5758 5756 5753 5751 5749 5748 5747 5746 5745 5743 5742 5742 5741 5745 5745 5743 5743 5742 5742
5758 5756 5756 5754 5753 5750 5750 5748 5747 5746 5744 5743 5742 5742 5745 5744 5744 5742 5741 5743 5742 5743 5741 5741 5740 5741 5741 5738 5737 5736 5736 5736 5732 5728 5727 5727 5726 5727 5728 5727 5727 5727 5728 5728
5742 5742 5740 5739 5737 5736 5736 5733 5731 5730 5730 5730 5729 5733 5732 5732 5730 5726 5725 5726 5723 5719 5721 5719 5718 5718 5718 5719 5720 5720 5718 5716 5716 5716 5714 5713 5709 5709 5709 5710 5711 5713 5712 5711
5725 5726 5726 5725 5723 5724 5722 5720 5715 5713 5715 5719 5715 5720 5728 5718 5718 5714 5712 5707 5703 5699 5700 5702 5706 5704 5702 5700 5699 5700 5700 5701 5700 5700 5699 5700 5698 5696 5696 5694 5693 5692 5691 5692
5707 5713 5713 5713 5711 5708 5706 5709 5704 5693 5697 5697 5697 5699 5705 5710 5704 5700 5693 5687 5688 5688 5683 5679 5675 5676 5678 5680 5683 5685 5685 5684 5684 5685 5684 5682 5680 5681 5680 5678 5677 5677 5674 5673
5691 5696 5696 5696 5693 5693 5693 5688 5691 5676 5677 5672 5678 5680 5694 5693 5686 5682 5674 5670 5669 5667 5661 5661 5661 5659 5657 5657 5660 5663 5663 5662 5662 5661 5659 5659 5660 5660 5662 5660 5657 5655 5653 5654
5676 5674 5679 5677 5678 5672 5669 5671 5665 5661 5650 5645 5648 5657 5663 5673 5666 5656 5646 5648 5646 5647 5647 5641 5639 5639 5639 5637 5638 5636 5635 5636 5636 5635 5633 5632 5631 5632 5634 5633 5633 5633 5630 5631
5657 5652 5663 5658 5659 5659 5653 5649 5647 5642 5635 5623 5620 5625 5652 5644 5633 5623 5624 5624 5620 5619 5618 5622 5616 5612 5613 5614 5615 5613 5612 5611 5611 5613 5612 5612 5611 5611 5611 5612 5613 5613 5613 5611
5640 5630 5629 5638 5643 5637 5630 5625 5627 5618 5616 5608 5599 5595 5619 5617 5617 5610 5605 5603 5601 5599 5599 5599 5596 5596 5591 5589 5590 5591 5591 5589 5590 5590 5592 5592 5593 5594 5593 5591 5592 5594 5593 5592
5622 5615 5609 5612 5623 5620 5611 5609 5607 5605 5597 5592 5584 5584 5597 5598 5593 5595 5588 5586 5583 5581 5579 5577 5573 5571 5571 5571 5571 5571 5571 5568 5568 5569 5570 5571 5571 5573 5572 5573 5574 5575 5576 5576
5604 5597 5597 5593 5599 5596 5591 5590 5591 5585 5573 5571 5567 5564 5574 5573 5561 5567 5568 5566 5562 5558 5556 5553 5552 5551 5549 5547 5546 5547 5547 5545 5546 5548 5548 5549 5550 5552 5553 5554 5555 5556 5557 5560
5583 5575 5577 5576 5577 5573 5572 5568 5572 5565 5560 5543 5548 5542 5542 5542 5543 5544 5546 5542 5540 5539 5538 5534 5532 5529 5526 5524 5524 5525 5523 5521 5520 5521 5521 5527 5528 5529 5531 5533 5534 5537 5539 5542
5563 5555 5552 5551 5558 5551 5542 5549 5552 5547 5540 5529 5528 5522 5519 5520 5518 5517 5517 5519 5516 5514 5513 5513 5512 5509 5505 5502 5500 5502 5500 5498 5495 5494 5500 5502 5504 5506 5510 5510 5512 5515 5519 5521
5542 5539 5534 5521 5534 5526 5518 5535 5527 5523 5522 5513 5507 5502 5498 5496 5494 5493 5492 5490 5490 5488 5487 5486 5485 5483 5479 5478 5475 5475 5475 5473 5472 5472 5474 5476 5480 5481 5482 5487 5490 5495 5498 5501
5521 5521 5513 5504 5509 5497 5509 5506 5504 5504 5501 5493 5485 5480 5472 5470 5472 5472 5465 5463 5462 5460 5458 5456 5454 5453 5452 5448 5446 5446 5446 5445 5446 5447 5448 5446 5450 5455 5458 5461 5465 5467 5473 5478
5507 5500 5493 5486 5483 5480 5485 5483 5481 5478 5477 5471 5464 5458 5453 5445 5442 5455 5442 5439 5437 5433 5431 5426 5424 5423 5423 5421 5416 5416 5416 5416 5415 5417 5419 5420 5421 5428 5433 5437 5441 5444 5447 5453
5489 5482 5474 5471 5462 5457 5464 5464 5458 5453 5446 5451 5441 5437 5430 5426 5419 5430 5418 5415 5412 5409 5402 5399 5397 5396 5394 5393 5387 5386 5387 5389 5388 5388 5391 5392 5394 5401 5410 5413 5417 5420 5425 5431
5467 5463 5456 5452 5443 5438 5446 5444 5437 5433 5432 5425 5420 5416 5410 5404 5399 5397 5397 5388 5384 5382 5378 5373 5369 5367 5366 5364 5360 5358 5358 5359 5362 5362 5365 5367 5370 5373 5381 5388 5393 5396 5401 5406
5451 5447 5442 5435 5429 5428 5428 5426 5418 5414 5407 5405 5401 5396 5387 5384 5379 5374 5370 5365 5360 5354 5351 5346 5339 5340 5339 5334 5328 5329 5331 5330 5331 5333 5336 5340 5343 5349 5351 5359 5366 5374 5378 5381
5435 5431 5423 5424 5418 5418 5412 5405 5404 5396 5388 5389 5382 5379 5368 5363 5360 5353 5349 5345 5337 5329 5324 5320 5313 5312 5313 5306 5300 5299 5301 5299 5301 5302 5306 5310 5315 5320 5325 5331 5338 5347 5352 5359
5420 5418 5410 5403 5412 5400 5395 5393 5386 5381 5375 5370 5364 5358 5351 5344 5339 5331 5327 5322 5313 5307 5299 5292 5286 5283 5281 5277 5271 5268 5268 5266 5268 5272 5275 5278 5283 5290 5295 5301 5310 5319 5328 5334
5407 5402 5396 5390 5394 5380 5383 5375 5370 5365 5359 5353 5347 5341 5334 5325 5321 5309 5306 5299 5291 5282 5274 5265 5259 5253 5250 5244 5241 5238 5236 5235 5236 5238 5244 5248 5252 5259 5267 5274 5280 5288 5300 5307
5392 5387 5378 5374 5376 5366 5365 5357 5354 5348 5342 5336 5329 5325 5319 5307 5300 5292 5286 5276 5267 5259 5250 5242 5234 5227 5223 5217 5213 5210 5205 5203 5204 5206 5211 5216 5223 5231 5236 5246 5255 5261 5272 5279